Location: Unspecified
(52.4292°N, 19.3359°E)
Time: 00:14:57
(UTC+02:00)

SR - Pass Details

Date: 27 May 2024
Orbit: 580 x 858 km, 66.7° (Epoch: 12 June)

Event Time Altitude Azimuth Distance (km) Brightness Sun altitude
Rises 01:57:09 0° 318° (NW) 2,887 ? -14.3°
Reaches altitude 10° 01:59:28 10° 315° (NW) 1,951 ? -14.2°
Maximum altitude 02:03:43 56° 237° (WSW) 704 ? -14.0°
Enters shadow 02:06:56 16° 163° (SSE) 1,537 ? -13.8°
Drops below altitude 10° 02:07:50 10° 160° (SSE) 1,892 - -13.8°
Sets 02:10:04 0° 156° (SSE) 2,791 - -13.6°
